Syracuse, NY

5:37 PM EST on February 07, 2016 (GMT -0500)
Syracuse Hancock International

Weather History for KSYR - June, 2012

Change the Weather History Date:

Thursday, June 7, 2012

  Actual Average Record
Temperature  
Mean Temperature 63 °F 64 °F  
Max Temperature 76 °F 75 °F 94 °F (1999)
Min Temperature 49 °F 54 °F 40 °F (1939)
Degree Days  
Heating Degree Days 2 3  
Month to date heating degree days 39 26  
Since 1 June heating degree days 39 26  
Since 1 July heating degree days 5152 6616  
Cooling Degree Days 0 3  
Month to date cooling degree days 0 15  
Year to date cooling degree days 95 45  
Since 1 June cooling degree days 0 15  
Growing Degree Days 12 (Base 50)    
Moisture  
Dew Point 50 °F    
Average Humidity 65    
Maximum Humidity 96    
Minimum Humidity 33    
Precipitation  
Precipitation 0.00 in 0.11 in 0.92 in (1935)
Month to date precipitation 0.91 0.76  
Year to date precipitation 13.55 14.69  
Snow  
Snow 0.00 in 0.00 in 0.00 in (2002)
Month to date snowfall 0.0 0.0  
Since 1 June snowfall 0.0 0.0  
Since 1 July snowfall 50.6 123.8  
Snow Depth 0.00 in    
Sea Level Pressure  
Sea Level Pressure 29.95 in    
Wind  
Wind Speed 5 mph (WNW)    
Max Wind Speed 15 mph    
Max Gust Speed 18 mph    
Visibility 10 miles    
Events      
T = Trace of Precipitation, MM = Missing Value Source: NWS Daily Summary

Daily Weather History Graph

Daily Weather History Graph

Search for Another Location

Airport or City:

Trip Planner

Search our weather history database for the weather conditions in past years. The results will help you decide how hot, cold, wet, or windy it might be!

Date:

Astronomy

Jun. 07, 2012 Rise Set
Actual Time 5:25 AM EDT 8:41 PM EDT
Civil Twilight 4:50 AM EDT 9:16 PM EDT
Nautical Twilight 4:04 AM EDT 10:02 PM EDT
Astronomical Twilight 3:09 AM EDT 10:58 PM EDT
Moon 11:26 PM EDT 8:57 AM EDT
Length of Visible Light 16h 26m
Length of Day
15h 16m
Waning Gibbous, 86% of the Moon is Illuminated
Jun 7
Waning Gibbous
Jun 11
Last Quarter
Jun 19
New
Jun 26
First Quarter
Jul 3
Full

Hourly Weather History & Observations

Time (EDT) Temp. Dew Point Humidity Pressure Visibility Wind Dir Wind Speed Gust Speed Precip Events Conditions
12:54 AM 54.0 °F 51.1 °F 90% 29.96 in 10.0 mi East 4.6 mph - N/A   Scattered Clouds
1:54 AM 52.0 °F 50.0 °F 93% 29.96 in 10.0 mi Calm Calm - N/A   Scattered Clouds
2:54 AM 51.8 °F 50.0 °F 94% 29.97 in 10.0 mi SSE 3.5 mph - N/A   Partly Cloudy
3:54 AM 51.1 °F 48.9 °F 92% 29.96 in 10.0 mi ESE 4.6 mph - N/A   Scattered Clouds
4:54 AM 50.0 °F 48.9 °F 96% 29.96 in 10.0 mi East 3.5 mph - N/A   Mostly Cloudy
5:54 AM 50.0 °F 48.0 °F 93% 29.97 in 10.0 mi Calm Calm - N/A   Mostly Cloudy
6:54 AM 52.0 °F 50.0 °F 93% 29.99 in 10.0 mi Calm Calm - N/A   Mostly Cloudy
7:54 AM 59.0 °F 53.1 °F 81% 29.99 in 10.0 mi Variable 3.5 mph - N/A   Scattered Clouds
8:54 AM 63.0 °F 54.0 °F 72% 29.99 in 10.0 mi West 4.6 mph - N/A   Mostly Cloudy
9:54 AM 64.9 °F 55.0 °F 70% 29.99 in 10.0 mi WNW 4.6 mph - N/A   Mostly Cloudy
10:54 AM 69.1 °F 54.0 °F 58% 29.98 in 10.0 mi North 4.6 mph - N/A   Scattered Clouds
11:54 AM 71.1 °F 54.0 °F 55% 29.97 in 10.0 mi SW 5.8 mph - N/A   Mostly Cloudy
12:54 PM 71.1 °F 54.0 °F 55% 29.96 in 10.0 mi West 9.2 mph - N/A   Mostly Cloudy
1:54 PM 72.0 °F 53.1 °F 51% 29.95 in 10.0 mi WSW 8.1 mph - N/A   Mostly Cloudy
2:54 PM 75.0 °F 52.0 °F 44% 29.93 in 10.0 mi NW 11.5 mph 16.1 mph N/A   Scattered Clouds
3:54 PM 75.0 °F 48.9 °F 40% 29.92 in 10.0 mi WNW 10.4 mph - N/A   Partly Cloudy
4:54 PM 75.0 °F 48.9 °F 40% 29.91 in 10.0 mi NNW 9.2 mph - N/A   Partly Cloudy
5:54 PM 75.0 °F 45.0 °F 34% 29.90 in 10.0 mi WNW 9.2 mph - N/A   Scattered Clouds
6:54 PM 73.0 °F 46.9 °F 39% 29.91 in 10.0 mi NW 8.1 mph - N/A   Scattered Clouds
7:54 PM 71.1 °F 46.9 °F 42% 29.92 in 10.0 mi NW 5.8 mph - N/A   Mostly Cloudy
8:54 PM 66.0 °F 48.0 °F 52% 29.94 in 10.0 mi NW 10.4 mph - N/A   Scattered Clouds
9:54 PM 63.0 °F 48.9 °F 60% 29.94 in 10.0 mi Calm Calm - N/A   Scattered Clouds
10:54 PM 61.0 °F 50.0 °F 67% 29.93 in 10.0 mi Calm Calm - N/A   Mostly Cloudy
11:54 PM 61.0 °F 50.0 °F 67% 29.94 in 10.0 mi SW 3.5 mph - N/A   Scattered Clouds